Radiation Dose measured at exhaust stack monitor of Fukushima Daiichi Nuclear Power Station
Date,Time,Unit 5 6 shared exhaust cylinders,Wind Direction,Wind Velocity(m/s)
2024/02/20,00:00,3.8,south,10.0
2024/02/20,00:10,3.7,south,9.5
2024/02/20,00:20,3.9,south,9.9
2024/02/20,00:30,3.7,south,9.1
2024/02/20,00:40,3.6,south,8.1
2024/02/20,00:50,3.9,south-southwest,8.3
2024/02/20,01:00,3.8,south,8.9
2024/02/20,01:10,3.8,south,10.6
2024/02/20,01:20,3.7,south,11.7
2024/02/20,01:30,3.8,south,10.3
2024/02/20,01:40,3.6,south,9.1
2024/02/20,01:50,3.8,south,9.7
2024/02/20,02:00,3.7,south,9.6
2024/02/20,02:10,3.8,south,8.8
2024/02/20,02:20,3.7,south,9.2
2024/02/20,02:30,3.5,south-southwest,8.9
2024/02/20,02:40,3.7,south-southwest,7.3
2024/02/20,02:50,3.6,south-southwest,5.8
2024/02/20,03:00,3.7,southwest,6.4
2024/02/20,03:10,3.6,south-southwest,7.1
2024/02/20,03:20,3.8,south-southwest,8.1
2024/02/20,03:30,3.7,south-southwest,8.7
2024/02/20,03:40,3.6,south-southwest,8.5
2024/02/20,03:50,4.0,south-southwest,9.4
2024/02/20,04:00,3.5,south,7.8
2024/02/20,04:10,3.8,south,6.6
2024/02/20,04:20,3.8,south,5.9
2024/02/20,04:30,3.5,south,6.9
2024/02/20,04:40,3.9,south-southwest,5.5
2024/02/20,04:50,3.7,south,4.4
2024/02/20,05:00,3.7,south,5.7
2024/02/20,05:10,3.7,south,5.6
2024/02/20,05:20,3.6,south,6.1
2024/02/20,05:30,3.6,south,6.1
2024/02/20,05:40,3.7,south,6.2
2024/02/20,05:50,3.8,south,6.1
2024/02/20,06:00,3.9,south-southwest,3.5
2024/02/20,06:10,3.8,south-southwest,4.6
2024/02/20,06:20,3.8,south-southwest,5.0
2024/02/20,06:30,3.7,south-southwest,5.8
2024/02/20,06:40,3.6,south-southwest,6.3
2024/02/20,06:50,3.6,south-southwest,6.0
2024/02/20,07:00,3.6,south-southwest,6.1
2024/02/20,07:10,3.7,south-southwest,6.4
2024/02/20,07:20,3.7,south-southwest,7.6
2024/02/20,07:30,3.6,south-southwest,8.1
2024/02/20,07:40,3.8,south-southwest,7.6
2024/02/20,07:50,3.7,south-southwest,7.7
2024/02/20,08:00,3.7,south-southwest,6.4
2024/02/20,08:10,3.6,south-southwest,6.2
2024/02/20,08:20,3.7,south,5.4
2024/02/20,08:30,3.6,south,5.7
2024/02/20,08:40,3.6,south,6.1
2024/02/20,08:50,3.9,south,7.2
2024/02/20,09:00,3.8,south-southwest,6.1
2024/02/20,09:10,3.7,south-southwest,5.0
2024/02/20,09:20,3.7,south-southwest,3.2
2024/02/20,09:30,3.8,southwest,3.5
2024/02/20,09:40,3.8,west-southwest,3.5
2024/02/20,09:50,3.7,west,5.4
2024/02/20,10:00,3.8,west,6.4
2024/02/20,10:10,3.8,west,7.9
2024/02/20,10:20,3.7,west-northwest,7.6
2024/02/20,10:30,3.8,west-northwest,9.7
2024/02/20,10:40,3.7,west-northwest,11.6
2024/02/20,10:50,3.8,west-northwest,10.2
2024/02/20,11:00,3.8,west-northwest,10.7
2024/02/20,11:10,3.6,west-northwest,9.2
2024/02/20,11:20,3.9,west-northwest,10.3
2024/02/20,11:30,3.8,northwest,10.5
2024/02/20,11:40,3.7,northwest,12.0
2024/02/20,11:50,3.8,northwest,10.9
2024/02/20,12:00,3.7,northwest,8.2
2024/02/20,12:10,3.8,northwest,9.1
2024/02/20,12:20,3.7,northwest,8.9
2024/02/20,12:30,3.8,northwest,6.7
2024/02/20,12:40,3.8,west-northwest,6.9
2024/02/20,12:50,3.8,west-northwest,7.6
2024/02/20,13:00,3.8,west-northwest,10.2
2024/02/20,13:10,3.6,west-northwest,13.0
2024/02/20,13:20,3.8,west-northwest,12.7
2024/02/20,13:30,3.7,west-northwest,11.0
2024/02/20,13:40,3.7,west-northwest,12.7
2024/02/20,13:50,3.7,west-northwest,6.6
2024/02/20,14:00,3.7,west,5.1
2024/02/20,14:10,3.9,east-northeast,1.9
2024/02/20,14:20,3.7,west-northwest,1.2
2024/02/20,14:30,3.6,north,2.0
2024/02/20,14:40,3.7,north-northwest,3.3
2024/02/20,14:50,3.7,north,4.6
2024/02/20,15:00,3.7,north-northeast,3.5
2024/02/20,15:10,3.8,north,5.0
2024/02/20,15:20,3.7,north,3.4
2024/02/20,15:30,3.8,north,2.3
2024/02/20,15:40,3.6,north,5.3
2024/02/20,15:50,3.9,northwest,2.6
2024/02/20,16:00,3.7,northwest,3.1
2024/02/20,16:10,3.9,north-northeast,9.2
2024/02/20,16:20,3.6,north-northeast,8.4
2024/02/20,16:30,3.7,north-northeast,8.2
2024/02/20,16:40,3.8,north,5.5
2024/02/20,16:50,3.8,north,5.1
2024/02/20,17:00,3.6,north,5.9
2024/02/20,17:10,3.6,north,6.3
2024/02/20,17:20,3.7,north,5.9
2024/02/20,17:30,3.7,north,6.4
2024/02/20,17:40,3.8,north-northeast,7.2
2024/02/20,17:50,3.9,north,7.5
2024/02/20,18:00,3.6,north,6.9
2024/02/20,18:10,3.7,north,4.8
2024/02/20,18:20,3.7,north-northwest,5.8
2024/02/20,18:30,3.8,north,7.9
2024/02/20,18:40,3.9,north,6.7
2024/02/20,18:50,3.8,north,6.1
2024/02/20,19:00,3.7,north-northwest,6.4
2024/02/20,19:10,3.6,north,7.8
2024/02/20,19:20,3.7,north,6.6
2024/02/20,19:30,3.8,north,6.8
2024/02/20,19:40,3.8,north,7.4
2024/02/20,19:50,3.8,north,8.2
2024/02/20,20:00,3.5,north,8.5
2024/02/20,20:10,3.8,north,9.3
2024/02/20,20:20,3.5,north,8.9
2024/02/20,20:30,3.8,north,8.5
2024/02/20,20:40,3.7,north,7.6
2024/02/20,20:50,3.7,north,7.3
2024/02/20,21:00,3.7,north,7.6
2024/02/20,21:10,3.7,north,7.3
2024/02/20,21:20,3.7,north-northwest,7.7
2024/02/20,21:30,3.6,north,6.0
2024/02/20,21:40,3.7,north,5.4
2024/02/20,21:50,3.8,north,6.8
2024/02/20,22:00,3.6,north,5.5
2024/02/20,22:10,3.6,north,5.9
2024/02/20,22:20,3.6,north,5.3
2024/02/20,22:30,3.5,north,6.9
2024/02/20,22:40,3.6,north,6.1
2024/02/20,22:50,3.4,north,8.2
2024/02/20,23:00,3.8,north-northeast,8.4
2024/02/20,23:10,3.7,north-northeast,8.4
2024/02/20,23:20,3.7,north,8.1
2024/02/20,23:30,3.8,north-northeast,9.1
2024/02/20,23:40,3.7,north,8.6
2024/02/20,23:50,3.6,north-northeast,8.5
